Location: Contre
(49.7477°N, 2.0963°E)
Time: 14:23:40
(UTC+00:00)

Meteor 2-12 Rocket - Pass Details

Date: 13 August 2024
Orbit: 936 x 956 km, 82.5° (Epoch: 14 September)

Event Time Altitude Azimuth Distance (km) Brightness Sun altitude
Rises 22:11:15 0° 359° (N) 3,615 8.5 -21.9°
Reaches altitude 10° 22:15:06 10° 23° (NNE) 2,669 7.3 -22.2°
Maximum altitude 22:18:20 15° 56° (NE) 2,352 6.6 -22.4°
Enters shadow 22:21:32 10° 88° (E) 2,663 6.6 -22.6°
